Location: Kuppenheim
(48.8299°N, 8.2568°E)
Time: 10:12:45
(UTC+00:00)

N. Korean satellite - Pass Details

Date: 05 December 2022
Orbit: 407 x 444 km, 97.3° (Epoch: 28 January)

Event Time Altitude Azimuth Distance (km) Brightness Sun altitude
Rises 16:29:22 0° 192° (SSW) 2,457 10.7 -9.2°
Maximum altitude 16:34:34 27° 265° (W) 921 8.9 -10.0°
Drops below altitude 10° 16:37:36 10° 325° (NW) 1,631 9.4 -10.4°
Sets 16:39:54 0° 338° (NNW) 2,518 10.2 -10.8°
